Location: Marcé
(47.5801°N, 0.3280°W)
Time: 20:06:06
(UTC+01:00)

Vanguard 1 - Visible Passes

Search period start: 30 November 2021 00:00
Search period end: 10 December 2021 00:00
Orbit: 653 x 3830 km, 34.3° (Epoch: 30 November)

Date Brightness Start Highest point End Pass type
(mag) Time Alt. Az. Time Alt. Az. Time Alt. Az.
30 Nov 13.9 00:45:02 13° E 00:45:02 13° E 00:46:41 10° E visible
30 Nov 12.9 02:57:43 46° SE 02:57:43 46° SE 03:09:59 10° E visible
30 Nov 12.6 05:10:24 38° SW 05:17:36 51° SSW 05:30:23 10° ESE visible
30 Nov 12.8 07:24:41 10° W 07:38:55 30° SW 07:47:59 10° SSE visible
01 Dec 13.8 01:04:37 18° E 01:04:37 18° E 01:08:14 10° E visible
01 Dec 12.8 03:17:19 51° SSE 03:17:19 51° SSE 03:30:53 10° ESE visible
01 Dec 12.6 05:30:01 34° WSW 05:38:24 48° SSW 05:50:53 10° SE visible
01 Dec 12.9 07:46:36 10° W 07:59:07 25° SW 08:07:32 10° S visible
02 Dec 13.6 01:24:12 23° ESE 01:24:12 23° ESE 01:29:34 10° E visible
02 Dec 12.7 03:36:54 54° S 03:36:54 54° S 03:51:43 10° ESE visible
02 Dec 12.7 05:49:36 29° WSW 05:59:06 44° SSW 06:11:14 10° SE visible
02 Dec14.123:31:06E23:31:06E22:49:23SSWvisible
03 Dec 13.5 01:43:48 28° ESE 01:43:48 28° ESE 01:50:44 10° E visible
03 Dec 12.7 03:56:29 54° S 03:56:46 55° S 04:12:28 10° ESE visible
03 Dec 12.8 06:09:11 24° WSW 06:19:39 40° SSW 06:31:24 10° SSE visible
03 Dec14.123:50:41E23:50:41E23:09:06SSWvisible
04 Dec 13.3 02:03:23 33° ESE 02:03:23 33° ESE 02:11:48 10° E visible
04 Dec 12.7 04:16:05 53° SSW 04:17:44 53° S 04:33:07 10° ESE visible
04 Dec 12.9 06:28:46 20° W 06:40:03 34° SW 06:51:20 10° SSE visible
05 Dec14.100:10:17E00:10:17E23:28:51SSWvisible
05 Dec 13.2 02:22:59 38° ESE 02:22:59 38° ESE 02:32:46 10° ESE visible
05 Dec 12.7 04:35:41 49° SW 04:38:37 51° SSW 04:53:39 10° SE visible
05 Dec 13.0 06:48:22 15° W 07:00:18 29° SW 07:10:57 10° S visible
05 Dec 13.8 21:35:40 10° S 21:35:55 10° S 21:35:55 10° S visible
06 Dec 14.1 00:29:55 11° E 00:29:55 11° E 00:30:24 10° E visible
06 Dec 13.1 02:42:36 43° SE 02:42:36 43° SE 02:53:40 10° ESE visible
06 Dec 12.8 04:55:18 43° SW 04:59:24 47° SSW 05:14:02 10° SE visible
06 Dec 13.2 07:07:59 11° W 07:20:24 23° SW 07:30:04 10° S visible
06 Dec 13.7 21:53:57 10° S 21:55:44 13° S 21:55:44 13° S visible
07 Dec 13.9 00:49:32 15° E 00:49:32 15° E 00:51:39 10° E visible
07 Dec 13.0 03:02:14 47° SE 03:02:14 47° SE 03:14:29 10° ESE visible
07 Dec 12.9 05:14:56 38° SW 05:20:01 42° SSW 05:34:13 10° SE visible
07 Dec 13.4 07:30:00 10° W 07:40:21 17° SW 07:48:26 10° SSW visible
07 Dec 13.6 22:13:00 10° SSW 22:15:33 16° S 22:15:33 16° S visible
08 Dec 13.8 01:09:11 19° ESE 01:09:11 19° ESE 01:12:48 10° E visible
08 Dec 12.9 03:21:54 49° SSE 03:21:54 49° SSE 03:35:12 10° ESE visible
08 Dec 13.0 05:34:36 32° WSW 05:40:30 37° SW 05:54:10 10° SSE visible
08 Dec 13.6 07:54:52 10° WSW 08:00:10 12° WSW 08:04:51 10° SW visible
08 Dec 13.6 20:20:58 10° SSE 20:22:41 11° SE 20:22:41 11° SE visible
08 Dec 13.6 22:32:32 10° SSW 22:35:24 17° SSW 22:35:24 17° SSW visible
09 Dec 13.7 01:28:52 23° ESE 01:28:52 23° ESE 01:33:52 10° E visible
09 Dec 12.9 03:41:35 50° S 03:41:35 50° S 03:55:46 10° SE visible
09 Dec 13.1 05:54:17 27° WSW 06:00:50 31° SW 06:13:47 10° SSE visible
09 Dec 13.5 20:37:40 10° SSE 20:42:32 16° SSE 20:42:32 16° SSE visible
09 Dec 13.6 22:52:25 10° SW 22:55:15 17° SSW 22:55:15 17° SSW visible
